Miscellaneous Local Product
Issued by NWS Hastings, NE

Home | Current Version | Previous Version | Graphics & Text | Print | Product List | Glossary On
Versions: 1 2 3 4 5 6 7 8 9 10 11 12 13 14 15 16 17 18 19 20 21 22 23 24 25 26 27 28 29 30 31 32 33 34 35 36 37 38 39 40 41 42 43 44 45 46 47 48 49 50
045
AXUS43 KGID 221502
MISGRI

GID CWA HOURLY WEATHER ROUNDUP
NATIONAL WEATHER SERVICE HASTINGS NE
900 AM CST MON JAN 22 2018

NOTE: "FAIR" INDICATES FEW OR NO CLOUDS BELOW 12,000 FEET WITH NO
SIGNIFICANT WEATHER AND/OR OBSTRUCTIONS TO VISIBILITY.

...SOUTH CENTRAL NEBRASKA...

CITY           SKY/WX    TMP DP  RH WIND       PRES   REMARKS
GRAND ISLAND   FOG       27  27 100 N41G54    29.60R VSB<1/4 WCI   8
KEARNEY        SNOW      28  27  96 MISG      29.67R VSB 1/4
HASTINGS       SNOW      29  27  92 N36G47    29.61R VSB 1/4 WCI  12
ORD            FOG       27  23  85 NW31      29.72S VSB 1   WCI  10
YORK           HVY SNOW  28  28 100 N26G36    29.53R WCI  13
AURORA         CLOUDY    29  28  98 N37G45    29.59R WCI  12
LEXINGTON      CLOUDY    29  27  92 NW17      29.78R WCI  17
HOLDREGE       CLOUDY    29  29 100 N14G21    29.70R WCI  19
HEBRON         CLOUDY    33  31  92 N24G35    29.54R WCI  20

...NEBRASKA PANHANDLE...

CITY           SKY/WX    TMP DP  RH WIND       PRES   REMARKS
CHADRON        PTCLDY    15   7  70 SW3       30.02R
ALLIANCE       MOCLDY    23  16  74 NW16      29.94S WCI  10
SCOTTSBLUFF    PTCLDY    16   8  71 W13       30.01S WCI   2
SIDNEY         PTCLDY    21  12  68 NW18      29.95S WCI   6

...WESTERN AND NORTH CENTRAL NEBRASKA...

CITY           SKY/WX    TMP DP  RH WIND       PRES   REMARKS
VALENTINE      MOCLDY    25  21  85 NW20G26   29.90S WCI  11
AINSWORTH        N/A     25  24  95 N24G32    29.84F WCI  10
ONEILL         CLOUDY    24  23  96 N26G32    29.78R WCI   7
BROKEN BOW     CLOUDY    28  22  78 NW31G39   29.76S WCI  12
IMPERIAL       CLOUDY    27  21  78 NW24G35   29.88S WCI  12
NORTH PLATTE     N/A    N/A N/A N/A MISG      29.84F
MCCOOK         CLOUDY    28  26  92 NW28G38   29.84R FOG     WCI  13

...EASTERN NEBRASKA...

CITY           SKY/WX    TMP DP  RH WIND       PRES   REMARKS
NORFOLK        FOG       26  25  96 N28G76    29.59R VSB 1/4 WCI  10
SO SIOUX CITY  HVY SNOW  29  29 100 N18       29.60R VSB 1/4 WCI  16
TEKAMAH        FOG       33  31  92 N26       29.47S VSB 1/2 WCI  20
COLUMBUS       HVY SNOW  29  28  96 MISG      29.55S VSB 1/4
ALBION         HVY SNOW  27  25  93 N28G36    29.65R VSB 1/4 WCI  11
OMAHA EPPLEY   LGT SNOW  34  32  92 N14       29.43S FOG     WCI  25
OFFUTT AFB     LGT SNOW  34  33  97 N8        29.42R FOG     WCI  27
MILLARD        LGT SNOW  35  33  94 N7        29.43F WCI  29
LINCOLN        LGT SNOW  33  31  92 N26G35    29.48R VSB 3/4 WCI  20
NEBRASKA CITY  CLOUDY    34  34 100 N10       29.41S FOG     WCI  26
BEATRICE       LGT RAIN  35  33  95 NW18      29.46S WCI  24
FALLS CITY     CLOUDY    36  35  96 NW13      29.41S FOG     WCI  27

...NORTHERN KANSAS...

CITY           SKY/WX    TMP DP  RH WIND       PRES   REMARKS
GOODLAND       CLOUDY    24  19  81 NW26      29.87R HAZE    WCI   8
HILL CITY      FOG       31  30  96 NW29G47   29.76R VSB 1/4 WCI  16
NORTON         CLOUDY    28  25  86 N30G37    29.75R WCI  13
PHILLIPSBURG   LGT SNOW  32  32 100 NW28G40   29.71R VSB 1   WCI  18
SMITH CENTER   LGT SNOW  30  28  93 NW28G38   29.64R WCI  16
BELOIT         CLOUDY    34  28  80 NW28G39   29.57R WCI  20
HAYS           SNOW      32  30  92 NW35G46   29.68R VSB 1/2 WCI  17
RUSSELL        SNOW      33  32  96 NW36G44   29.64R VSB 1/2 WCI  18
CONCORDIA      FLURRIES  33  31  92 NW22G35   29.52R WCI  21
SALINA         SNOW      34  33  96 NW18G31   29.56R VSB 1/2 WCI  23
TOPEKA         CLOUDY    36  35  96 VRB6      29.46S WCI  31



USA.gov is the U.S. government's official web portal to all federal, state and local government web resources and services.